Regional Weather Roundup
Issued by NWS

Home | Current Version | Previous Version | Text Only | Print | Product List | Glossary Off
Versions: 1 2 3 4 5 6 7 8 9 10 11 12 13 14 15 16 17 18 19 20 21 22 23 24 25 26 27 28 29 30 31 32 33 34 35 36 37 38 39 40 41 42 43 44 45 46 47 48 49 50

000
ASUS43 KLOT 162308
RWRIL

ILLINOIS REGIONAL WEATHER ROUNDUP
NATIONAL WEATHER SERVICE CHICAGO/ROMEOVILLE IL
600 PM CDT WED AUG 16 2017

NOTE: "FAIR" INDICATES FEW OR NO CLOUDS BELOW 12,000 FEET WITH NO
SIGNIFICANT WEATHER AND/OR OBSTRUCTIONS TO VISIBILITY.

* THESE STATIONS ARE NOT UNDER NWS QUALITY CONTROL. THEY ALSO MAY NOT
  REPORT WEATHER SUCH AS PRECIPITATION OR FOG.

ILZ001-002-007-009-015-016-024-170000-
NORTHWEST ILLINOIS

CITY           SKY/WX    TMP DP  RH WIND       PRES   REMARKS
MOLINE         PTSUNNY   83  71  67 S8        29.79F HX  87
STERLING*      CLOUDY    79  75  87 E9        29.82F HX  83
SAVANNA*       RAIN      78  74  88 SE5       29.80F HX  81
$$

ILZ003-004-008-010-011-017-018-170000-
NORTH CENTRAL ILLINOIS

CITY           SKY/WX    TMP DP  RH WIND       PRES   REMARKS
ROCKFORD       CLOUDY    79  71  76 SE17      29.85F HX  82
FREEPORT*      CLOUDY    75  72  88 SE12      29.84F
ROCHELLE*      MOSUNNY   75  72  89 SE14G21   29.85F
DE KALB*       MOSUNNY   74  72  93 SE17      29.88F
PERU*          CLOUDY    81  72  73 SE13      29.84F HX  85
$$

ILZ005-006-012>014-019>023-170000-
NORTHEAST ILLINOIS

CITY           SKY/WX    TMP DP  RH WIND       PRES   REMARKS
CHICAGO-OHARE  HVY RAIN  74  70  87 S9        29.89S FOG
CHICAGO-MIDWAY PTSUNNY   77  73  87 CALM      29.89F
AURORA         PTSUNNY   76  71  85 E13       29.88F
LANSING*       CLOUDY    79  71  76 CALM      29.90F HX  82
JOLIET*        CLOUDY    79  74  86 SE7       29.87F HX  83
WAUKEGAN       LGT RAIN  74  72  93 SE5       29.89S FOG
DUPAGE AIRPORT PTSUNNY   72  71  97 SE8       29.88F
KANKAKEE*      PTSUNNY   82  72  71 S7        29.89F HX  86
WHEELING       LGT RAIN  76  74  93 S10       29.91R
MORRIS*        MOSUNNY   78  74  87 SE8       29.85F HX  80
ROMEOVILLE*    CLOUDY    76  71  83 SE7       29.88F
NORTHERLY ISL    N/A     77  71  82 S5          N/A
$$

LMZ740>746-170000-
SOUTHERN LAKE MICHIGAN

STATION/POSITION SKY/WX   TEMP    WIND        PRES    VSBY  WAVE
                          AIR SEA DIR/SP/G                  HT/PER
                          (F)     (DEG/KT/KT) (MB)    (MI)  (FT/S)
SOUTHERN BUOY              74 73   60/  8/ 10 1012.4F         1
WILMETTE HARBOR            75 73  160/ 10/ 12   N/A           2/ 3
HARRISON CRIB              78     150/ 11/ 12   N/A
CALUMET HARBOR             77     240/  3/  5 1012.1R
BURNS HARBOR               85     180/  6/ 12 1012.9F
MICHIGAN CITY              85     170/ 11/ 14   N/A
MICHIGAN CITY 6N           81 76  180/  6/  8   N/A           1/ 3
ST. JOSEPH                 81 76  200/  8/ 10 1012.2          1
$$

ILZ025>027-034>036-040-047-049-050-058-095>099-170000-
WEST-CENTRAL ILLINOIS

CITY           SKY/WX    TMP DP  RH WIND       PRES   REMARKS
QUINCY         CLOUDY    78  74  87 S9        29.82R HX  81
GALESBURG*     CLOUDY    80  73  77 S7        29.83F HX  84
MACOMB*        CLOUDY    80  74  81 S6        29.85R HX  84
JACKSONVILLE*  CLOUDY    79  76  90 SE12      29.83F HX  82
PITTSFIELD*    LGT RAIN  77  75  93 S13G18    29.84S
$$

ILZ028>032-037-038-041>044-048-051>054-059>061-170000-
CENTRAL ILLINOIS

CITY           SKY/WX    TMP DP  RH WIND       PRES   REMARKS
PONTIAC        PTSUNNY   81  77  89 CALM      29.87F HX  88
BLOOMINGTON    CLOUDY    79  73  82 S13       29.88S HX  82
DECATUR        CLOUDY    79  74  84 S14       29.89S HX  82
PEORIA         CLOUDY    82  74  76 S18G28    29.84R HX  88
LACON*         MOSUNNY   82  73  74 S10       29.83S HX  86
LINCOLN*       CLOUDY    81  76  87 S10       29.87R HX  87
SPRINGFIELD    LGT RAIN  83  77  82 S9G18     29.86R HX  92
TAYLORVILLE    CLOUDY    80  76  89 S10       29.88S HX  85
$$

ILZ033-039-045-046-055>057-062-063-170000-
EAST-CENTRAL ILLINOIS

CITY           SKY/WX    TMP DP  RH WIND       PRES   REMARKS
CHAMPAIGN      MOSUNNY   80  74  81 S9        29.91S HX  85
RANTOUL*       CLOUDY    82  75  78 S12       29.90S HX  89
MATTOON        PTSUNNY   80  77  90 S6        29.91S HX  87
PARIS*         CLOUDY    82  75  80 S7        29.93F HX  88
$$

ILZ079-100>102-170000-
SOUTHWEST ILLINOIS

CITY           SKY/WX    TMP DP  RH WIND       PRES   REMARKS
ALTON          TSTM      73  73 100 E6        29.95R
BELLEVILLE     CLOUDY    75  73  93 W3        29.95R
CAHOKIA*       CLOUDY    77  72  84 NW7G17    29.94R THUNDER
SPARTA*        TSTM      74  74  98 SE7       29.94F
$$

ILZ064>066-069>071-074>076-080>082-084>086-088>090-092>094-170000-
SOUTH-CENTRAL ILLINOIS

CITY           SKY/WX    TMP DP  RH WIND       PRES   REMARKS
CARBONDALE     CLOUDY    83  75  77 SW6       29.94R HX  90
CAIRO*         MOSUNNY   84  76  76 SW7       29.94S HX  92
EFFINGHAM*     CLOUDY    83  77  82 SE5       29.93S HX  92
MARION         PTSUNNY   86  75  70 S10       29.94R HX  95
MT. VERNON     CLOUDY    83  77  82 SW6       29.93R HX  92
CENTRALIA*     TSTM      82  78  89 S6        29.92R HX  91
SALEM*         TSTM      84  75  73 S6        29.93R HX  92
METROPOLIS*    RAIN      87  75  67 SW7       29.94S HX  97
$$

ILZ067-068-072-073-078-083-087-091-170000-
SOUTHEAST ILLINOIS

CITY           SKY/WX    TMP DP  RH WIND       PRES   REMARKS
LAWRENCEVILLE  CLOUDY    85  75  72 S7        29.93F HX  93
FLORA*         CLOUDY    86  76  72 S7        29.93R HX  96
FAIRFIELD*     CLOUDY    85  77  78 CALM      29.92R HX  95
HARRISBURG*    PTSUNNY   87  74  65 SW7       29.93R HX  95
ROBINSON*      CLOUDY    82  75  80 SE5       29.94S HX  88
CARMI*         CLOUDY    85  79  82 CALM      29.92S HX  98
$$

ABBREVIATIONS USED IN REMARKS
   TC - TEMPERATURE IN CELSIUS
  WCI - WIND CHILL INDEX
   HX - HEAT INDEX
  VSB - VISIBILITY
$$





USA.gov is the U.S. government's official web portal to all federal, state and local government web resources and services.